Simultaneous Nadir Overpasses (SNOs) Predictions

Prediction of SNOs between GOES-16 and AQUA Satellite Orbit:

Table of predicted SNOs for the next 14.0 days since TLE Epoch: 10/10/2025
Index Date Time (GOES-16) GOES-16 Lat,Lon AQUA Lat,Lon Distance(km) Time Diff (sec)
1 10/11/2025 10:04:16 -0.01,-104.70 0.38,-106.60 215.47 80
2 10/13/2025 09:40:45 -0.01,-104.69 -0.67,-101.49 363.59 80
3 10/13/2025 21:59:55 0.01,-104.67 -0.31,-106.12 165.07 80
4 10/15/2025 21:41:44 0.02,-104.66 0.79,-101.01 415.20 80
5 10/16/2025 10:00:44 -0.01,-104.68 0.18,-105.60 105.23 80
6 10/18/2025 09:37:13 -0.02,-104.67 -0.91,-100.49 475.68 80
7 10/18/2025 21:56:21 0.01,-104.65 -0.11,-105.11 52.86 80
8 10/21/2025 09:54:29 -0.00,-104.68 -0.02,-104.59 9.56 80
9 10/23/2025 21:55:24 -0.01,-104.65 0.11,-104.10 62.75 80
10 10/24/2025 10:14:24 0.02,-104.67 0.89,-108.68 456.14 80
